Погода в Барышеве

Россия / Новосибирская область     54°57′35″N   83°11′01″E
темп.,
°C
ветер,
м/с
пор.,
м/с
влажн.,
%
обл.,
%
осадки,
мм/ч
давл.,
гПа
погр.,
м
22 апреля, чт
чт2201:00−3св227847 0.0 102948
04:00−3ссв377757 0.0 1031263
07:00−3ссв49805 0.0 1035473
10:00+1ссв685564 0.0 10371316
13:00+3св7843100 0.1 10382027
16:00+3св6846100 0.1 10401786
19:00+2ссв695916 0.3 10421177
22:00−1ссв410845 0.0 1044243
23 апреля, пт
пт2301:00−2ссв410885 0.0 1044290
04:00−2ссв39945 0.0 1044256
07:00−2ссв49939 0.0 1045318
10:00+2св686374 0.0 10451225
13:00+5св694413 0.0 10431736
16:00+6св6941100 0.0 10422180
19:00+6св575119 0.0 10421589
22:00+1св23765 0.0 104244
24 апреля, сб
сб2401:000ссв38815 0.0 1041202
04:00−1ссв38865 0.0 1039232
07:00−1с488430 0.0 1038295
10:00+4ссв676042 0.0 10371299
13:00+6ссв564394 0.0 10351909
16:00+8с553993 0.0 10332080
19:00+7с454547 0.0 10331631
22:00+3ссв22665 0.0 103431
25 апреля, вс
вс2501:00+1св11735 0.0 103310
04:00+1с00747 0.0 103310
07:00+1ююз00736 0.0 103410
10:00+5юз11575 0.0 1033607
13:00+8юз224990 0.0 10321427
16:00+9юз324581 0.0 10311581
19:00+8ююз2245100 0.0 1030794
22:00+6ю2254100 0.0 103012
26 апреля, пн
пн2601:00+5ююв2269100 0.0 103024
04:00+4ююв2371100 0.0 102958
07:00+3ююв2474100 0.0 102990
10:00+7ююв3458100 0.0 1028494
13:00+10ююв344595 0.0 10271292
16:00+11юв4543100 0.0 10251559
19:00+11ююв45475 0.0 10251554
22:00+6юв486719 0.0 1024149